This is the latest recevied weather packets stored in our database for station/object CE3SUR-17. If no packets are shown the sender has not sent any weather packets the latest 10 day(s).
| Time | Temp. | Humidity | Pressure | Rain* | Wind** | Luminosity | Snow |
|---|---|---|---|---|---|---|---|
| 1777845530 | 27.22° C | 41% | 958.9 hPa | - | - | - | - |
| 1777843730 | 27.78° C | 41% | 958.7 hPa | - | - | - | - |
| 1777841930 | 28.33° C | 41% | 958.7 hPa | - | - | - | - |
| 1777840130 | 28.89° C | 41% | 958.4 hPa | - | - | - | - |
| 1777838329 | 29.44° C | 40% | 958.3 hPa | - | - | - | - |
| 1777836534 | 30.56° C | 40% | 958.4 hPa | - | - | - | - |
| 1777834729 | 30° C | 41% | 958.3 hPa | - | - | - | - |
| 1777832929 | 29.44° C | 41% | 958.2 hPa | - | - | - | - |
| 1777831128 | 29.44° C | 41% | 958.2 hPa | - | - | - | - |
| 1777829328 | 28.33° C | 42% | 958.5 hPa | - | - | - | - |
| 1777827527 | 27.22° C | 42% | 959 hPa | - | - | - | - |
| 1777825727 | 26.11° C | 43% | 959.3 hPa | - | - | - | - |
| 1777823928 | 25.56° C | 43% | 959.5 hPa | - | - | - | - |
| 1777822128 | 23.89° C | 44% | 959.7 hPa | - | - | - | - |
| 1777820328 | 22.78° C | 44% | 960 hPa | - | - | - | - |
| 1777818528 | 22.22° C | 45% | 960.1 hPa | - | - | - | - |
| 1777816727 | 20.56° C | 46% | 960 hPa | - | - | - | - |
| 1777814927 | 19.44° C | 47% | 960.1 hPa | - | - | - | - |
| 1777813127 | 18.33° C | 47% | 960 hPa | - | - | - | - |
| 1777811327 | 17.78° C | 47% | 959.8 hPa | - | - | - | - |
| 1777809526 | 17.78° C | 48% | 959.5 hPa | - | - | - | - |
| 1777807726 | 17.78° C | 47% | 959.1 hPa | - | - | - | - |
| 1777805926 | 17.78° C | 47% | 958.6 hPa | - | - | - | - |
| 1777804126 | 18.33° C | 48% | 958.6 hPa | - | - | - | - |
| 1777802329 | 18.33° C | 47% | 958.5 hPa | - | - | - | - |
* Rain since midnight (hover to see other rain measurements)
** Current wind speed in m/s (hover to see current wind gust speed)